Back to catalog

EPSILON DEB

AliveLEO
NORAD 39254·DEBRIS·🇯🇵 Japan

Launched Sep 14, 2013 from Uchinoura Space Center

Loading…

Next Passes (next 24 hours)

TLE

FreshSource: Space-Track

Epoch: Sep 14, 2026, 13:03 UTC

1 39254U 13049B   26257.54410625  .00000083  00000-0  15616-4 0  9993
2 39254  29.7066 355.1955 0182050   0.0226   0.0341 13.75482860654090

Track EPSILON DEB in real time with AllMySat

Download on the App Store